[[{"header":{"parameterUnit":"m.s-1","parameterCategory":1,"la1":30.2991,"la2":30.254,"lo1":-89.0895,"lo2":-89.0444,"dy":0.0017,"dx":0.0017,"nx":28,"ny":28,"refTime":"2024-06-03T21:00:00:Z","depth":0,"parameterNumber":2,"parameterNumberName":"U-component_of_WINDS"},"data":[0,0,0,0,0,0,0,0,0,0,0,0,0,0,0,0,0,0,0,0,0,0,0,0,0,0,0,0,0,0,0,0,0,0,0,0,0,0,0,0,0,0,0,0,0,0,0,0,0,0,0,0,0,0,0,0,0,0,-1.263,-1.2631,0,-1.2726,-1.2727,-1.2728,-1.2753,-1.2753,-1.2752,-1.2752,-1.2851,-1.2854,-1.2857,0,0,0,0,0,0,0,0,0,0,0,0,0,-1.2469,-1.2471,-1.263,-1.2631,-1.2632,-1.2726,-1.2727,-1.2729,-1.2754,-1.2753,-1.2752,-1.2751,-1.285,-1.2853,-1.2857,0,0,0,0,0,0,0,0,0,0,0,0,0,-1.2549,-1.2472,-1.2629,-1.2656,-1.2659,-1.2726,-1.2727,-1.2729,-1.2754,-1.2753,-1.2752,-1.2751,-1.2848,-1.2853,-1.2858,-1.2905,0,0,-1.2872,-1.2874,0,0,0,0,0,0,0,0,-1.2544,-1.2555,-1.2651,-1.2654,-1.2658,-1.2727,-1.2707,-1.2788,-1.2754,-1.2718,-1.2752,-1.2751,-1.281,-1.2818,-1.2838,-1.2909,-1.2914,-1.2873,-1.2875,-1.2878,-1.2879,0,0,0,0,0,0,0,-1.2539,-1.2551,-1.2668,-1.2652,-1.2657,-1.2663,-1.2674,-1.2722,-1.2768,-1.2721,-1.2723,-1.2734,-1.2812,-1.2833,-1.284,-1.2915,-1.2872,-1.2877,-1.288,-1.2882,-1.303,-1.3031,0,0,0,0,0,0,-1.2529,-1.2546,-1.2665,-1.2671,-1.2598,-1.2667,-1.2679,-1.2706,-1.2767,-1.2776,-1.2735,-1.2735,-1.2826,-1.2835,-1.2844,-1.2903,-1.2877,-1.2882,-1.2885,-1.3029,-1.3031,-1.3032,0,0,0,0,0,0,-1.2525,-1.2539,-1.2661,-1.2609,-1.2625,-1.2671,-1.2701,-1.2708,-1.2729,-1.2778,-1.2786,-1.2748,-1.2825,-1.2837,-1.289,-1.2907,-1.2884,-1.2888,-1.3028,-1.303,-1.3031,-1.3022,0,0,0,0,0,0,-1.252,-1.2538,-1.2555,-1.2609,-1.2628,-1.2704,-1.2702,-1.2711,-1.2738,-1.2739,-1.2792,-1.2801,-1.2826,-1.2882,-1.2894,-1.2913,-1.2892,-1.3027,-1.3029,-1.3031,-1.3021,-1.3023,-1.3025,0,0,0,0,0,-1.2514,-1.2549,-1.2556,-1.257,-1.2651,-1.2705,-1.2716,-1.2744,-1.2739,-1.2757,-1.2789,-1.2799,-1.2903,-1.2887,-1.2901,-1.2922,-1.3026,-1.3028,-1.3031,-1.302,-1.3022,-1.3025,0,0,0,0,0,0,-1.2496,-1.2556,-1.2565,-1.2618,-1.2656,-1.2709,-1.2734,-1.2746,-1.2786,-1.2786,-1.2819,-1.2831,-1.2881,-1.2907,-1.2888,-1.2971,-1.2965,-1.297,-1.2952,-1.2955,-1.2957,-1.2949,-1.2896,0,0,0,0,0,-1.2498,-1.2537,-1.2588,-1.2629,-1.2648,-1.2688,-1.2712,-1.2731,-1.2772,-1.2788,-1.2823,-1.2862,-1.2904,-1.2931,-1.2972,-1.3025,-1.3037,-1.3046,-1.3048,-1.3049,-1.3053,-1.3083,-1.3088,-1.304,-1.304,-1.304,0,0,-1.2503,-1.2541,-1.2563,-1.2627,-1.2658,-1.2698,-1.2701,-1.2743,-1.2772,-1.2794,-1.2845,-1.2873,-1.2919,-1.2972,-1.2997,-1.2995,-1.3069,-1.3053,-1.3053,-1.3057,-1.3086,-1.3091,-1.3095,-1.3042,-1.3041,-1.3041,0,0,-1.2531,-1.2564,-1.2602,-1.2634,-1.2682,-1.2709,-1.2718,-1.2769,-1.2788,-1.284,-1.2858,-1.2894,-1.2965,-1.2998,-1.3023,-1.3065,-1.3076,-1.3078,-1.3088,-1.3117,-1.3121,-1.3124,-1.3139,-1.3144,-1.3082,-1.3082,-1.3082,0,-1.2531,-1.2591,-1.262,-1.2661,-1.2689,-1.2711,-1.275,-1.278,-1.2839,-1.2858,-1.2855,-1.2946,-1.2979,-1.3039,-1.3049,-1.307,-1.3081,-1.3071,-1.3118,-1.3122,-1.3125,-1.314,-1.3145,-1.3082,-1.3082,-1.3082,-1.3082,0,-1.2588,-1.2629,-1.2655,-1.2711,-1.2742,-1.2782,-1.2818,-1.2845,-1.2862,-1.2888,-1.2941,-1.2982,-1.3031,-1.3047,-1.3063,-1.311,-1.3108,-1.3111,-1.3105,-1.3129,-1.3143,-1.3149,-1.3082,-1.3082,-1.3082,-1.3082,0,0,-1.2606,-1.2679,-1.2688,-1.2714,-1.2769,-1.2802,-1.2843,-1.2892,-1.2915,-1.2956,-1.2991,-1.3051,-1.3055,-1.3084,-1.3105,-1.313,-1.316,-1.313,-1.3132,-1.3134,-1.3214,-1.3211,-1.3217,-1.3168,-1.317,-1.3171,-1.321,0,-1.2641,-1.2715,-1.2743,-1.2804,-1.2843,-1.2865,-1.2901,-1.2939,-1.2965,-1.3002,-1.3031,-1.3073,-1.3075,-1.3093,-1.3119,-1.3151,-1.3177,-1.3149,-1.3201,-1.3203,-1.3188,-1.3224,-1.3221,-1.3256,-1.3216,-1.3217,-1.3218,0,-1.2691,-1.2732,-1.2796,-1.2847,-1.2865,-1.2896,-1.2944,-1.2979,-1.3023,-1.304,-1.3073,-1.3092,-1.3136,-1.3129,-1.3191,-1.3171,-1.3194,-1.3213,-1.3216,-1.3221,-1.3211,-1.323,-1.3268,-1.3273,-1.3227,-1.3226,-1.3225,0,-1.2698,-1.2769,-1.2817,-1.2838,-1.2899,-1.2921,-1.2947,-1.299,-1.3018,-1.306,-1.3078,-1.3124,-1.3149,-1.3185,-1.3216,-1.3207,-1.3275,-1.327,-1.329,-1.3289,-1.3302,-1.3301,-1.3344,-1.3319,-1.3319,-1.3319,-1.3319,0,-1.2733,-1.2771,-1.282,-1.2849,-1.2893,-1.2926,-1.2969,-1.2997,-1.3035,-1.307,-1.3093,-1.3125,-1.3165,-1.3203,-1.3227,-1.3274,-1.3286,-1.3301,-1.3307,-1.3299,-1.3297,-1.3314,-1.3312,-1.332,-1.332,-1.332,-1.3319,0,-1.2747,-1.2781,-1.2835,-1.2888,-1.2902,-1.2932,-1.2978,-1.3008,-1.3035,-1.308,-1.3092,-1.3136,-1.3181,-1.3216,-1.3276,-1.3292,-1.3342,-1.3349,-1.3327,-1.333,-1.3349,-1.3346,-1.3404,-1.3413,-1.3382,-1.3382,-1.3382,0,-1.2767,-1.2797,-1.2854,-1.2879,-1.2905,-1.2945,-1.2974,-1.3008,-1.3036,-1.3089,-1.3112,-1.316,-1.3199,-1.3272,-1.3309,-1.3354,-1.3362,-1.3379,-1.3369,-1.336,-1.3362,-1.3359,-1.3362,-1.338,-1.338,-1.338,-1.338,0,-1.2799,-1.2815,-1.2854,-1.29,-1.2934,-1.2972,-1.301,-1.3029,-1.307,-1.3102,-1.3149,-1.3179,-1.324,-1.3287,-1.3337,-1.3365,-1.3379,-1.3384,-1.3391,-1.3382,-1.3368,-1.3375,-1.333,-1.3382,-1.3382,-1.3382,-1.3382,-1.3381,-1.2816,-1.2844,-1.2888,-1.2932,-1.2965,-1.3,-1.303,-1.3062,-1.3102,-1.3154,-1.3172,-1.322,-1.3264,-1.3332,-1.336,-1.3399,-1.3399,-1.341,-1.3412,-1.3414,-1.3413,-1.3362,-1.3408,-1.3408,-1.3408,-1.3409,-1.3409,0,-1.2849,-1.2879,-1.2919,-1.2972,-1.3006,-1.3017,-1.3061,-1.3089,-1.3131,-1.3171,-1.3209,-1.3264,-1.3309,-1.335,-1.3398,-1.3421,-1.3429,-1.3433,-1.3431,-1.3437,-1.341,-1.3399,-1.3425,-1.3425,-1.3425,-1.3425,-1.3425,-1.3425,-1.287,-1.2917,-1.2938,-1.3002,-1.3032,-1.3079,-1.3103,-1.3136,-1.3168,-1.3227,-1.3265,-1.3292,-1.3332,-1.3383,-1.3426,-1.3437,-1.3453,-1.3454,-1.3467,-1.3441,-1.3439,-1.3437,-1.3426,-1.3458,-1.3458,-1.349,-1.349,-1.349]},{"header":{"parameterUnit":"m.s-1","parameterCategory":1,"la1":30.2991,"la2":30.254,"lo1":-89.0895,"lo2":-89.0444,"dy":0.0017,"dx":0.0017,"nx":28,"ny":28,"refTime":"2024-06-03T21:00:00:Z","depth":0,"parameterNumber":3,"parameterNumberName":"V-component_of_WINDS"},"data":[0,0,0,0,0,0,0,0,0,0,0,0,0,0,0,0,0,0,0,0,0,0,0,0,0,0,0,0,0,0,0,0,0,0,0,0,0,0,0,0,0,0,0,0,0,0,0,0,0,0,0,0,0,0,0,0,0,0,4.5679,4.5679,0,4.5661,4.5661,4.566,4.5673,4.5673,4.5674,4.5674,4.565,4.5649,4.5648,0,0,0,0,0,0,0,0,0,0,0,0,0,4.572,4.572,4.5679,4.5679,4.5679,4.5661,4.5661,4.566,4.5673,4.5673,4.5674,4.5675,4.565,4.5649,4.5648,0,0,0,0,0,0,0,0,0,0,0,0,0,4.5702,4.5719,4.5679,4.5683,4.5683,4.5661,4.5661,4.566,4.5672,4.5673,4.5674,4.5675,4.5651,4.5649,4.5647,4.5619,0,0,4.5642,4.5641,0,0,0,0,0,0,0,0,4.5703,4.5701,4.5682,4.5682,4.5683,4.567,4.5666,4.5646,4.5672,4.5676,4.5674,4.5675,4.5656,4.5654,4.5648,4.5618,4.5617,4.5642,4.5641,4.564,4.564,0,0,0,0,0,0,0,4.5705,4.5702,4.5672,4.5682,4.5682,4.5684,4.5682,4.5663,4.5661,4.5676,4.5677,4.5675,4.5656,4.565,4.5648,4.5617,4.5642,4.564,4.5639,4.5639,4.5565,4.5565,0,0,0,0,0,0,4.5706,4.5703,4.5672,4.5671,4.5695,4.5683,4.5681,4.5673,4.5661,4.5661,4.5674,4.5675,4.5652,4.565,4.5647,4.5615,4.564,4.5638,4.5637,4.5566,4.5565,4.5564,0,0,0,0,0,0,4.5707,4.5703,4.5673,4.5687,4.5683,4.5681,4.5672,4.5672,4.5666,4.566,4.5659,4.5668,4.5653,4.5649,4.5627,4.5614,4.5638,4.5636,4.5567,4.5566,4.5565,4.5549,0,0,0,0,0,0,4.5708,4.5704,4.5693,4.5687,4.5683,4.5654,4.5671,4.5671,4.5664,4.5665,4.5655,4.5654,4.5653,4.563,4.5625,4.5612,4.5635,4.5568,4.5567,4.5565,4.5551,4.5547,4.5545,0,0,0,0,0,4.571,4.5688,4.5693,4.5689,4.567,4.5654,4.5651,4.5653,4.5663,4.5652,4.5649,4.5654,4.5616,4.5627,4.5622,4.5608,4.5569,4.5567,4.5565,4.5552,4.5548,4.5545,0,0,0,0,0,0,4.569,4.5687,4.5692,4.5668,4.5662,4.5656,4.5642,4.5648,4.5637,4.5638,4.5639,4.5637,4.5614,4.5609,4.5621,4.5582,4.5594,4.5591,4.5586,4.5582,4.5579,4.558,4.5633,0,0,0,0,0,4.5684,4.5672,4.5669,4.5648,4.5645,4.5644,4.5637,4.564,4.5632,4.5628,4.5623,4.5614,4.56,4.5591,4.5578,4.5551,4.5549,4.5539,4.5536,4.5533,4.553,4.5517,4.5513,4.5558,4.5558,4.5558,0,0,4.5669,4.5666,4.5658,4.5644,4.5639,4.5626,4.5642,4.5626,4.5617,4.5625,4.5605,4.5601,4.5591,4.5567,4.5556,4.5561,4.5518,4.553,4.5529,4.5527,4.5515,4.551,4.5507,4.5556,4.5557,4.5557,0,0,4.5636,4.5632,4.5616,4.5611,4.5604,4.5605,4.5601,4.5595,4.5593,4.5574,4.558,4.5568,4.5544,4.5537,4.5531,4.5499,4.5503,4.5494,4.5477,4.5465,4.5461,4.5458,4.5448,4.5444,4.5491,4.5491,4.5491,0,4.5618,4.56,4.5605,4.5591,4.5585,4.5595,4.5578,4.5573,4.5561,4.5557,4.5564,4.5536,4.553,4.5505,4.5498,4.5492,4.5487,4.5495,4.5462,4.5459,4.5456,4.5446,4.5442,4.549,4.549,4.5491,4.5491,0,4.5579,4.5567,4.5554,4.5546,4.5538,4.5522,4.5525,4.5516,4.552,4.552,4.55,4.5493,4.548,4.5475,4.5476,4.5451,4.5455,4.5462,4.5474,4.545,4.5441,4.5437,4.5489,4.5489,4.549,4.549,0,0,4.5531,4.5529,4.5524,4.5521,4.5516,4.5506,4.5491,4.548,4.5474,4.5466,4.5453,4.5435,4.5442,4.5435,4.5437,4.5426,4.5402,4.5434,4.5434,4.5429,4.5374,4.5369,4.5365,4.5406,4.5405,4.5404,4.5376,0,4.5498,4.5474,4.548,4.5456,4.5445,4.5456,4.5443,4.5438,4.5437,4.5427,4.5426,4.5414,4.5424,4.542,4.541,4.5407,4.5391,4.5409,4.5393,4.5393,4.5396,4.536,4.5354,4.5327,4.5372,4.5371,4.5371,0,4.5457,4.5451,4.5426,4.5425,4.5421,4.5409,4.5401,4.5392,4.5387,4.5387,4.5381,4.5385,4.537,4.5384,4.5363,4.5376,4.537,4.5368,4.5367,4.5365,4.538,4.5357,4.5318,4.5314,4.5365,4.5365,4.5366,0,4.5426,4.5411,4.5395,4.5392,4.539,4.5382,4.5381,4.5377,4.5371,4.5364,4.536,4.535,4.5344,4.5337,4.5338,4.5348,4.5318,4.5331,4.5317,4.5317,4.531,4.531,4.5269,4.5306,4.5306,4.5306,4.5306,0,4.5388,4.5373,4.5382,4.5372,4.5355,4.5362,4.5345,4.5344,4.5341,4.5331,4.5339,4.5329,4.5332,4.5322,4.5324,4.5307,4.5304,4.5304,4.5304,4.5303,4.5303,4.5299,4.5301,4.5305,4.5305,4.5305,4.5305,0,4.535,4.5355,4.5339,4.534,4.534,4.5328,4.5328,4.5318,4.532,4.5307,4.5304,4.5306,4.5295,4.5297,4.5283,4.5285,4.5264,4.5267,4.5267,4.5267,4.5254,4.5255,4.5209,4.5203,4.5243,4.5243,4.5242,0,4.5326,4.5316,4.5316,4.5311,4.531,4.5301,4.5296,4.5303,4.5297,4.5292,4.5283,4.5274,4.5267,4.5249,4.5248,4.5239,4.5241,4.5226,4.5239,4.524,4.5242,4.5243,4.5242,4.5222,4.5222,4.5222,4.5221,0,4.5284,4.5288,4.5281,4.5277,4.5271,4.5267,4.5263,4.5258,4.5264,4.5258,4.5248,4.5243,4.5231,4.5222,4.5214,4.5211,4.5217,4.5217,4.5214,4.5212,4.5213,4.5214,4.5259,4.5218,4.5218,4.5219,4.5219,4.5219,4.5253,4.5244,4.5244,4.5237,4.5236,4.5233,4.5225,4.5227,4.522,4.5213,4.5217,4.5206,4.5203,4.5193,4.519,4.5181,4.5186,4.5181,4.518,4.5178,4.5177,4.5215,4.5179,4.5179,4.5179,4.5179,4.5179,0,4.5211,4.5213,4.5207,4.5203,4.5198,4.5207,4.5204,4.5198,4.5189,4.5187,4.518,4.517,4.5162,4.5162,4.5154,4.5147,4.5149,4.5144,4.5145,4.5144,4.5172,4.5176,4.5142,4.5143,4.5143,4.5143,4.5143,4.5143,4.5189,4.5176,4.518,4.5167,4.5168,4.5159,4.5157,4.5155,4.5153,4.5142,4.5136,4.5137,4.5135,4.5128,4.5121,4.5121,4.5118,4.5112,4.5113,4.5139,4.5142,4.5146,4.515,4.5111,4.5111,4.5086,4.5086,4.5086]}]]